Wetbulb
57.55 58.38 58.22 58.16 58.12 58.18 59.33 61.24 61.99 62.57 61.56 61.41 63.21 63.96 61.54 60.22 59.14 62.59 65.47 65.61 65.10 64.49
54.53 54.67 54.42 55.13 56.30 57.20 57.72 60.56 61.19 61.51 61.22 61.11 60.95 61.71 61.70 62.50 58.75 61.72 64.17 65.50 65.58 64.92
53.02 52.56 52.03 52.34 53.19 54.87 56.04 57.81 58.23 58.44 59.73 59.95 60.72 60.76 59.30 58.51 58.86 60.10 62.53 64.39 64.80 64.84
52.14 51.48 50.05 50.17 51.38 52.49 53.72 55.67 57.07 57.85 58.32 58.09 58.06 60.33 59.65 57.78 58.12 58.28 58.41 61.52 62.54 63.69
50.62 50.15 48.71 48.95 49.66 50.45 50.79 52.76 54.53 55.91 57.12 57.65 56.99 57.92 59.19 59.76 61.45 60.33 59.36 60.43 61.11 62.21
49.17 49.14 49.23 49.94 49.53 50.01 50.00 50.66 51.02 52.53 55.33 56.70 57.01 56.05 58.53 58.67 59.72 59.59 60.76 60.31 60.37 60.77
49.04 49.23 49.31 49.32 48.86 49.27 49.09 48.84 49.89 52.15 54.08 55.88 56.49 55.61 56.75 57.34 56.56 57.16 59.71 61.52 60.57 60.81
48.15 48.63 48.40 48.17 48.42 48.38 48.60 48.45 48.67 48.90 50.40 52.17 53.01 55.75 53.90 54.24 54.04 53.64 54.83 58.95 61.07 60.24
46.39 47.16 46.98 46.74 47.27 46.33 45.69 46.44 46.80 47.07 47.74 47.84 50.04 48.79 48.53 47.79 50.33 50.84 50.59 51.21 55.07 56.54
44.85 44.48 44.71 44.54 44.76 43.14 42.26 43.31 44.33 44.59 45.59 46.08 47.53 47.81 46.97 47.83 46.73 48.18 48.55 49.59 51.18 53.64
43.65 42.58 42.20 41.58 40.39 39.86 40.42 41.75 41.59 42.12 43.18 44.19 45.89 45.94 44.91 46.13 45.84 46.55 47.93 48.55 49.76 50.48
42.20 40.92 40.41 39.46 38.46 38.61 38.53 38.80 39.28 40.99 41.32 41.71 42.15 43.78 43.63 43.74 44.69 47.06 46.13 47.92 48.85 48.89
41.01 39.86 39.15 40.71 40.71 40.62 40.24 38.66 39.95 40.04 40.36 41.87 41.00 42.16 42.28 42.60 42.79 43.56 46.25 46.57 46.23 47.84
40.19 38.78 38.99 40.39 40.55 40.09 39.54 39.40 38.27 39.40 39.05 39.23 40.26 40.28 41.11 41.60 41.76 42.84 43.91 45.36 46.11 47.13
MSLP
1016.73 1016.98 1017.00 1016.63 1016.26 1016.27 1016.08 1015.79 1015.41 1015.10 1014.87 1014.48 1013.98 1013.69 1013.71 1013.78 1014.05 1014.07 1014.06 1014.06 1014.04 1013.94
1016.60 1017.42 1017.45 1016.97 1016.53 1016.42 1016.40 1016.20 1015.86 1015.44 1015.05 1014.66 1014.30 1014.04 1013.93 1013.97 1014.12 1013.97 1013.72 1013.49 1013.40 1013.67
1016.16 1017.03 1017.15 1016.88 1016.75 1016.58 1016.42 1016.27 1016.02 1015.67 1015.45 1015.07 1014.74 1014.37 1014.15 1013.90 1013.85 1013.99 1013.79 1013.23 1013.12 1013.22
1016.58 1017.16 1017.35 1017.08 1016.73 1016.74 1016.43 1016.39 1016.29 1016.07 1015.78 1015.47 1014.97 1014.56 1014.07 1013.96 1013.76 1013.79 1013.75 1013.53 1013.21 1012.93
1016.93 1017.49 1017.54 1017.06 1016.75 1016.73 1016.75 1016.61 1016.63 1016.33 1015.84 1015.61 1015.19 1014.58 1014.31 1013.87 1013.43 1013.31 1013.36 1013.24 1013.13 1012.80
1017.68 1017.42 1017.81 1017.55 1016.64 1016.83 1016.98 1016.65 1016.17 1016.27 1016.18 1015.67 1015.30 1014.72 1014.18 1013.82 1013.48 1013.14 1012.99 1012.79 1012.74 1012.74
1018.12 1018.47 1018.40 1018.13 1017.34 1017.33 1017.20 1016.88 1016.39 1016.19 1016.04 1015.64 1015.24 1014.82 1014.28 1013.93 1013.43 1013.10 1012.87 1012.38 1012.19 1012.32
1018.65 1018.69 1018.71 1018.06 1017.84 1017.42 1017.35 1017.20 1017.17 1016.42 1015.94 1015.81 1015.51 1014.95 1014.59 1013.93 1013.65 1013.17 1012.89 1012.48 1012.26 1012.22
1019.13 1018.98 1018.68 1018.50 1018.35 1017.97 1017.96 1017.86 1017.17 1016.65 1016.25 1015.80 1015.51 1015.04 1014.60 1014.36 1014.03 1013.20 1012.84 1012.69 1012.07 1012.13
1019.32 1019.21 1019.04 1018.76 1018.52 1018.63 1018.26 1017.82 1017.29 1016.91 1016.23 1015.77 1015.41 1014.94 1014.58 1014.12 1013.90 1013.51 1013.00 1012.51 1011.99 1011.88
1019.21 1019.27 1019.16 1018.97 1018.89 1018.78 1018.34 1017.96 1017.68 1017.19 1016.08 1015.55 1015.40 1015.08 1014.67 1013.95 1013.90 1013.33 1012.69 1012.31 1011.95 1011.64
1019.08 1018.98 1018.96 1018.95 1018.90 1018.69 1018.45 1017.86 1017.33 1016.50 1015.81 1015.51 1015.25 1014.85 1014.45 1014.09 1013.89 1013.05 1012.49 1012.00 1011.75 1011.63
1019.06 1018.84 1018.60 1018.46 1018.27 1018.08 1017.69 1017.37 1016.91 1016.22 1015.78 1015.36 1014.80 1014.38 1014.24 1013.97 1013.70 1012.66 1012.05 1011.42 1011.44 1011.31
1018.89 1018.90 1018.78 1018.38 1018.07 1017.48 1016.99 1016.67 1016.54 1015.97 1015.01 1015.11 1014.45 1013.67 1013.95 1013.59 1013.08 1012.81 1011.85 1011.27 1011.43 1011.19
Wind_Speed
8 5 4 5 4 4 4 4 6 4 4 6 6 7 6 4 2 1 2 4 5 4
7 6 4 5 5 3 4 4 6 6 6 6 6 6 6 5 5 4 4 5 5 5
7 5 5 5 6 6 5 6 7 7 7 6 5 5 5 4 4 5 5 4 5 5
6 5 4 4 4 5 4 5 6 7 7 7 6 6 5 4 5 6 6 6 6 6
6 4 5 5 4 3 4 5 6 7 7 7 7 6 6 6 5 4 6 6 7 7
9 8 7 7 7 7 6 5 5 5 7 7 7 7 7 5 5 5 7 7 7 5
6 6 6 5 6 6 6 6 7 6 6 7 6 6 6 6 7 6 7 6 6 5
5 4 4 8 7 8 8 7 7 7 6 6 6 6 7 6 6 6 6 6 4 5
5 5 6 6 6 6 7 7 6 7 7 8 6 10 12 8 7 7 6 5 5 5
4 4 3 4 5 6 7 7 6 7 6 9 10 12 13 9 5 6 8 8 5 5
3 4 4 4 5 6 5 6 6 8 7 7 8 15 17 16 7 7 6 7 7 6
4 5 4 4 6 6 6 6 6 7 9 8 9 14 16 17 12 9 8 6 7 7
5 6 6 9 11 5 5 6 8 9 7 12 11 13 16 16 9 11 9 8 6 9
5 6 7 9 8 9 8 9 8 10 8 10 11 11 17 18 10 9 10 7 8 5
Wind_Direction
51 51 39 50 47 29 10 346 353 15 339 308 295 298 319 347 317 220 209 230 227 222
67 56 48 38 42 28 12 342 349 3 4 350 341 317 301 287 255 223 227 217 237 232
84 58 40 43 36 28 10 358 346 345 349 351 338 305 284 273 261 249 257 245 252 240
61 37 32 41 26 13 357 353 342 330 326 335 343 337 332 279 241 235 254 274 280 269
30 11 12 11 10 14 350 338 332 322 310 319 328 336 345 334 315 264 252 242 254 260
15 16 12 9 24 20 358 350 334 310 288 297 308 325 328 338 321 301 283 249 244 241
75 24 6 357 20 15 7 3 359 339 314 291 283 297 315 326 327 324 329 296 250 225
44 48 15 14 8 8 6 352 332 340 344 326 317 301 319 314 311 315 327 333 313 274
34 27 20 10 352 358 345 326 326 333 328 320 311 308 316 328 310 308 309 310 315 299
24 7 355 342 336 326 314 311 313 315 318 317 311 310 316 330 297 298 300 300 304 305
344 315 307 296 294 296 296 298 298 287 298 296 297 314 315 319 297 278 277 288 295 300
304 292 291 279 270 266 272 275 276 285 292 290 292 293 300 308 306 294 278 269 280 288
286 283 305 312 312 293 261 266 275 267 269 273 282 282 286 294 292 286 288 292 262 267
323 320 303 319 320 308 299 291 267 272 270 271 272 281 278 280 285 277 279 279 289 282